STARLINK-1492 (45779 NORAD) Tracking and Keplerian Element Data

This shows tracking and keplerian element data for the satellite.

Feedback or suggestion? Click here.




ElementValue
Catalog45779
NameSTARLINK-1492
Epoch Orbit177
Epoch Day218.91667824
Epoch Year2020
RAAN33.9616
Inclination53.001
Eccentricity0.000197
Argument of Perigee47.0067
Mean Anonmoly124.9596
Mean Motion15.62692252
Decay Rate0.00069379
L11 45779U 20038BB 20218.91667824 .00069379 00000-0 75883-3 0 9999
L22 45779 53.0010 33.9616 0001970 47.0067 124.9596 15.62692252 1773

Live tracking and technical data element details for STARLINK-1492 (NORAD 45779). STARLINK-1492 can be tracked NOW for your location showing map with azimuth and elevation plus other details from your city location.

Track the satellite on the map from your city or location and see movement details for azimuth, elevation, latitude, longitude, range, height, and movement on the map or in text.







IsCatalogInMostPopularTable: catalog: 45779, numindb: 11
Update: records affected: 1



GetName: 45779 STARLINK-1492

Hit Count: updated at: Fri, 07 Aug 2020 23:32:35 GMT